VK4TW-13 Weather Reports


time (UTC)temp
F
wind
direction
speed
knots
gust
knots
rain 1hr
in
rain 24hr
in
rain mn
in
humidity
%
barometer
mb
20260506013804 80 102 0.9 6.1 0.00 0.00 0.00 100 1015.1
20260506013438 81 108 5.2 7.0 0.00 0.00 0.00 100 1015.0
20260506012953 81 98 0.9 6.1 0.00 0.00 0.00 100 1015.0
20260506012651 82 106 5.2 5.2 0.00 0.00 0.00 100 1014.9
20260506011917 82 94 0.9 7.0 0.00 0.00 0.00 100 1015.0
20260506011617 82 75 7.0 7.0 0.00 0.00 0.00 100 1015.0
20260506011221 83 97 1.7 5.2 0.00 0.00 0.00 100 1015.0
20260506010220 83 95 1.7 4.3 0.00 0.00 0.00 100 1015.0
20260506005220 83 103 3.5 4.3 0.00 0.00 0.00 100 1015.1
20260506004221 83 99 1.7 10.4 0.00 0.00 0.00 100 1015.2
20260506003918 83 106 6.1 7.0 0.00 0.00 0.00 100 1015.3
20260506003258 84 87 1.7 4.3 0.00 0.00 0.00 100 1015.3
20260506002258 83 107 4.3 4.3 0.00 0.00 0.00 100 1015.4
20260506001434 82 99 0.0 4.3 0.00 0.00 0.00 100 1015.4
20260506001131 82 94 4.3 6.1 0.00 0.00 0.00 100 1015.5
20260506000702 81 109 0.0 4.3 0.00 0.00 0.00 100 1015.4
20260505234540 80 111 0.0 4.3 0.00 0.00 0.00 100 1015.5
20260505233538 80 72 3.5 3.5 0.00 0.00 0.00 100 1015.7
20260505232540 78 104 0.9 7.0 0.00 0.00 0.00 100 1015.8
20260505232241 78 73 7.0 7.0 0.00 0.00 0.00 100 1015.7
20260505231706 77 93 2.6 7.0 0.00 0.00 0.00 100 1015.7
20260505231408 77 81 7.8 7.8 0.00 0.00 0.00 100 1015.7
20260505230508 76 102 2.6 5.2 0.00 0.00 0.00 100 1015.9
20260505225508 76 91 2.6 7.0 0.00 0.00 0.00 100 1015.8
20260505225133 76 99 7.0 7.0 0.00 0.00 0.00 100 1015.8
20260505224744 76 91 2.6 5.2 0.00 0.00 0.00 100 1015.8
20260505223743 75 97 1.7 5.2 0.00 0.00 0.00 100 1015.9
20260505222744 75 105 2.6 7.0 0.00 0.00 0.00 100 1015.8
20260505222429 75 72 7.0 7.0 0.00 0.00 0.00 100 1015.8
20260505221733 75 71 1.7 4.3 0.00 0.00 0.00 100 1015.8
20260505220732 75 102 3.5 5.2 0.00 0.00 0.00 100 1015.7
20260505215735 74 87 4.3 4.3 0.00 0.00 0.00 100 1015.6
20260505214730 73 90 0.9 2.6 0.00 0.00 0.00 100 1015.6
20260505213729 72 78 1.7 1.7 0.00 0.00 0.00 100 1015.5
20260505212728 72 79 0.9 1.7 0.00 0.00 0.00 100 1015.4
20260505210727 71 91 0.9 2.6 0.00 0.00 0.00 100 1015.4
20260505205728 70 79 0.9 1.7 0.00 0.00 0.00 100 1015.2
20260505204726 70 100 0.0 1.7 0.00 0.00 0.00 100 1015.2
20260505203726 70 68 0.0 0.9 0.00 0.00 0.00 100 1015.0
20260505202726 70 99 0.0 0.9 0.00 0.00 0.00 100 1014.9
20260505201721 70 68 1.7 1.7 0.00 0.00 0.00 100 1014.7
20260505200721 71 72 0.9 2.6 0.00 0.00 0.00 100 1014.7
20260505195721 71 77 1.7 1.7 0.00 0.00 0.00 100 1014.6
20260505194721 71 112 2.6 2.6 0.00 0.00 0.00 100 1014.6
20260505192717 70 99 0.0 2.6 0.00 0.00 0.00 100 1014.4
20260505191718 70 112 0.0 1.7 0.00 0.00 0.00 100 1014.6
20260505190717 70 99 0.9 1.7 0.00 0.00 0.00 100 1014.3
20260505185718 70 112 0.0 1.7 0.00 0.00 0.00 100 1014.3
20260505184714 70 89 0.0 0.9 0.00 0.00 0.00 100 1014.3
20260505182715 71 73 0.0 1.7 0.00 0.00 0.00 100 1014.2
20260505181710 71 68 0.0 1.7 0.00 0.00 0.00 100 1014.1
20260505180713 71 85 0.0 2.6 0.00 0.00 0.00 100 1014.2
20260505175712 71 74 0.9 3.5 0.00 0.00 0.00 100 1014.1
20260505174708 71 112 0.0 1.7 0.00 0.00 0.00 100 1014.1
20260505173707 71 97 0.0 0.9 0.00 0.00 0.00 100 1014.2
20260505172710 71 112 0.0 1.7 0.00 0.00 0.00 100 1014.3
20260505171707 71 78 0.9 2.6 0.00 0.00 0.00 100 1014.5
20260505170706 72 79 0.9 1.7 0.00 0.00 0.00 100 1014.5
20260505164703 72 112 0.0 1.7 0.00 0.00 0.00 100 1014.4
20260505163701 72 99 0.0 2.6 0.00 0.00 0.00 100 1014.5
20260505162704 72 112 0.0 2.6 0.00 0.00 0.00 100 1014.7
20260505160701 72 99 2.6 3.5 0.00 0.00 0.00 100 1014.7
20260505152659 72 101 0.9 3.5 0.00 0.00 0.00 100 1015.3
20260505151656 72 86 0.9 3.5 0.00 0.00 0.00 100 1015.1
20260505150654 72 84 0.0 2.6 0.00 0.00 0.00 100 1015.2
20260505140648 72 108 2.6 2.6 0.00 0.00 0.00 100 1015.6
20260505124559 72 96 1.7 7.0 0.00 0.00 0.00 100 1016.0
20260505123559 73 92 3.5 3.5 0.00 0.00 0.00 100 1015.8
20260505122558 73 89 0.9 5.2 0.00 0.00 0.00 100 1015.7
20260505122254 73 97 5.2 5.2 0.00 0.00 0.00 100 1015.9
20260505121827 73 100 0.9 1.7 0.00 0.00 0.00 100 1016.2
20260505120825 73 95 1.7 4.3 0.00 0.00 0.00 100 1016.0
20260505115824 73 112 0.0 3.5 0.00 0.00 0.00 100 1015.9
20260505114824 73 112 1.7 7.0 0.00 0.00 0.00 100 1016.0
20260505113823 73 79 4.3 4.3 0.00 0.00 0.00 100 1015.7
20260505112948 73 112 0.0 1.7 0.00 0.00 0.00 100 1015.8
20260505111947 73 112 0.9 1.7 0.00 0.00 0.00 100 1015.9
20260505110946 73 112 0.9 7.0 0.00 0.00 0.00 100 1016.2
20260505110646 73 107 7.0 7.0 0.00 0.00 0.00 100 1016.1
20260505102205 73 92 6.1 6.1 0.00 0.00 0.00 100 1015.9
20260505101717 73 112 1.7 7.0 0.00 0.00 0.00 100 1016.0
20260505101418 73 103 7.0 7.0 0.00 0.00 0.00 100 1015.9
20260505100719 73 112 2.6 3.5 0.00 0.00 0.00 100 1015.9
20260505095717 73 112 0.0 4.3 0.00 0.00 0.00 100 1015.8
20260505095105 73 93 5.2 5.2 0.00 0.00 0.00 100 1015.5
20260505094435 73 112 0.0 3.5 0.00 0.00 0.00 100 1015.4
20260505093433 74 112 0.9 3.5 0.00 0.00 0.00 100 1015.4
20260505092436 74 112 0.0 1.7 0.00 0.00 0.00 100 1015.4
20260505091433 74 112 0.0 1.7 0.00 0.00 0.00 100 1015.3
20260505090431 74 112 0.0 1.7 0.00 0.00 0.00 100 1015.1
20260505085431 74 103 0.9 2.6 0.00 0.00 0.00 100 1014.9
20260505084428 74 99 0.9 3.5 0.00 0.00 0.00 100 1014.8
20260505083428 74 112 0.9 3.5 0.00 0.00 0.00 100 1014.6
20260505082427 75 112 0.0 2.6 0.00 0.00 0.00 100 1014.8
20260505081425 75 112 0.0 1.7 0.00 0.00 0.00 100 1014.7
20260505080424 75 112 0.0 0.9 0.00 0.00 0.00 100 1014.6
20260505075428 75 106 0.9 3.5 0.00 0.00 0.00 100 1014.6
20260505074423 76 112 1.7 1.7 0.00 0.00 0.00 100 1014.5
20260505073423 76 92 3.5 5.2 0.00 0.00 0.00 100 1014.5
20260505072426 76 112 1.7 6.1 0.00 0.00 0.00 100 1014.3
20260505072119 76 109 6.1 6.1 0.00 0.00 0.00 100 1014.2
20260505071751 77 112 1.7 5.2 0.00 0.00 0.00 100 1014.2
20260505070753 77 109 4.3 4.3 0.00 0.00 0.00 100 1013.9
20260505065826 78 112 0.0 3.5 0.00 0.00 0.00 100 1014.0
20260505064822 78 112 0.0 4.3 0.00 0.00 0.00 100 1013.7
20260505064303 78 105 4.3 4.3 0.00 0.00 0.00 100 1013.6
20260505063405 79 112 0.0 3.5 0.00 0.00 0.00 100 1013.5
20260505063058 79 103 4.3 4.3 0.00 0.00 0.00 100 1013.5
20260505062451 79 111 0.0 3.5 0.00 0.00 0.00 100 1013.4
20260505061450 79 112 0.0 3.5 0.00 0.00 0.00 100 1013.4
20260505060450 80 112 0.0 4.3 0.00 0.00 0.00 100 1013.4
20260505060145 80 106 4.3 4.3 0.00 0.00 0.00 100 1013.3
20260505055550 80 112 0.0 2.6 0.00 0.00 0.00 100 1013.5
20260505054549 80 112 0.0 2.6 0.00 0.00 0.00 100 1013.6
20260505053549 80 112 0.9 2.6 0.00 0.00 0.00 100 1013.6
20260505052548 80 99 0.9 5.2 0.00 0.00 0.00 100 1013.6
20260505052216 81 112 5.2 5.2 0.00 0.00 0.00 100 1013.6
20260505051429 81 106 0.9 2.6 0.00 0.00 0.00 100 1013.4
20260505050425 81 109 1.7 1.7 0.00 0.00 0.00 100 1013.2
20260505041630 83 112 0.9 3.5 0.00 0.00 0.00 100 1013.4
20260505040632 83 112 0.0 2.6 0.00 0.00 0.00 100 1013.3
20260505035632 83 112 0.0 5.2 0.00 0.00 0.00 100 1013.4
20260505034627 83 90 1.7 2.6 0.00 0.00 0.00 100 1013.6
20260505033627 83 108 0.9 2.6 0.00 0.00 0.00 100 1013.8
20260505032626 83 112 1.7 3.5 0.00 0.00 0.00 100 1013.6
20260505031626 83 112 0.0 7.0 0.00 0.00 0.00 100 1013.6
20260505031326 83 112 6.1 7.0 0.00 0.00 0.00 100 1013.7
20260505031019 83 112 0.9 7.0 0.00 0.00 0.00 100 1013.7
20260505030714 83 108 5.2 6.1 0.00 0.00 0.00 100 1013.8
20260505030357 83 112 0.9 6.1 0.00 0.00 0.00 100 1013.8
20260505025358 83 103 2.6 2.6 0.00 0.00 0.00 100 1013.9
20260505024355 83 112 0.9 2.6 0.00 0.00 0.00 100 1014.0
20260505023353 83 102 1.7 2.6 0.00 0.00 0.00 100 1014.0
20260505022353 84 106 3.5 3.5 0.00 0.00 0.00 100 1014.3
20260505021351 84 104 1.7 2.6 0.00 0.00 0.00 100 1014.4
20260505020350 84 97 1.7 4.3 0.00 0.00 0.00 100 1014.5
20260505015350 84 99 0.9 3.5 0.00 0.00 0.00 100 1014.5
20260505014348 83 103 1.7 4.3 0.00 0.00 0.00 100 1014.4